CCA1211 ZBAA-ZWWW

Flight info

Callsign CCA1211
Flight time N/A
Altitude 30100
Route BOTPU7X BOTPU W47 VIGEK W96 UPSUR W69 DKO W66 IDSIP/K0832S0980 W66 NUKTI B215 DUMAM DUMAM9Z
Aircraft A321/M-SDE3FGHIRWY/LB1

Departure

Time N/A
Airport Beijing Capital International Airport (ZBAA)

Arrival

Time 2026-05-07 13:38
Airport Ürümqi Tianshan International Airport (ZWWW)
Time Latitude Longitude Altitude Speed Heading
2026-05-07 11:43 41.87409 96.41037 30042 ft 426 kts 269°
2026-05-07 11:43 41.87342 96.37059 30056 ft 425 kts 269°
2026-05-07 11:44 41.87209 96.29176 30049 ft 426 kts 269°
2026-05-07 11:44 41.87078 96.21231 30061 ft 426 kts 269°
2026-05-07 11:45 41.87030 96.13285 30064 ft 426 kts 270°
2026-05-07 11:45 41.87015 96.05333 30055 ft 426 kts 270°
2026-05-07 11:46 41.86971 95.97375 30056 ft 427 kts 270°
2026-05-07 11:46 41.86917 95.89410 30057 ft 427 kts 270°
2026-05-07 11:47 41.86850 95.81434 30070 ft 427 kts 270°
2026-05-07 11:47 41.86778 95.73468 30059 ft 427 kts 270°
2026-05-07 11:48 41.86718 95.66786 30047 ft 428 kts 270°
2026-05-07 11:48 41.86625 95.57493 30038 ft 429 kts 270°
2026-05-07 11:49 41.86543 95.49477 30043 ft 430 kts 270°
2026-05-07 11:49 41.86453 95.41453 30033 ft 430 kts 270°
2026-05-07 11:50 41.86356 95.33427 30026 ft 430 kts 270°
2026-05-07 11:50 41.86410 95.25418 30040 ft 428 kts 277°
2026-05-07 11:50 41.87032 95.21525 30041 ft 428 kts 288°
2026-05-07 11:51 41.88174 95.17850 30015 ft 427 kts 300°
2026-05-07 11:51 41.91743 95.11515 30000 ft 427 kts 313°
2026-05-07 11:52 41.95686 95.05523 30001 ft 429 kts 311°
2026-05-07 11:52 41.99616 94.99465 29990 ft 430 kts 311°
2026-05-07 11:53 42.02894 94.94413 29984 ft 431 kts 312°
2026-05-07 11:53 42.06822 94.88374 29990 ft 432 kts 312°
2026-05-07 11:54 42.10783 94.82298 29981 ft 432 kts 311°
2026-05-07 11:54 42.14742 94.76212 29992 ft 431 kts 312°
2026-05-07 11:55 42.18684 94.70117 29979 ft 430 kts 312°
2026-05-07 11:55 42.22612 94.64030 29977 ft 430 kts 311°
2026-05-07 11:56 42.26538 94.57935 29973 ft 430 kts 311°
2026-05-07 11:56 42.30459 94.51834 29962 ft 430 kts 312°
2026-05-07 11:57 42.34385 94.45727 29964 ft 430 kts 311°
2026-05-07 11:57 42.38305 94.39618 29969 ft 430 kts 312°
2026-05-07 11:58 42.42218 94.33499 29970 ft 430 kts 312°
2026-05-07 11:58 42.46131 94.27372 29970 ft 430 kts 312°
2026-05-07 11:59 42.50015 94.21282 29971 ft 430 kts 312°
2026-05-07 11:59 42.53919 94.15149 29979 ft 429 kts 312°
2026-05-07 12:00 42.57819 94.08999 29966 ft 430 kts 311°
2026-05-07 12:00 42.61704 94.02845 29978 ft 429 kts 311°
2026-05-07 12:01 42.65578 93.96700 29989 ft 428 kts 311°
2026-05-07 12:01 42.69459 93.90553 29968 ft 428 kts 311°
2026-05-07 12:02 42.73339 93.84403 29982 ft 428 kts 311°
2026-05-07 12:02 42.77205 93.78242 29967 ft 428 kts 311°
2026-05-07 12:03 42.81064 93.72078 29982 ft 427 kts 310°
2026-05-07 12:03 42.84493 93.65506 29997 ft 427 kts 297°
2026-05-07 12:04 42.86561 93.57937 29991 ft 426 kts 289°
2026-05-07 12:04 42.88474 93.50280 29964 ft 426 kts 290°
2026-05-07 12:05 42.90388 93.42627 29985 ft 426 kts 290°
2026-05-07 12:05 42.92293 93.34970 29976 ft 426 kts 289°
2026-05-07 12:06 42.94191 93.27302 29976 ft 426 kts 290°
2026-05-07 12:06 42.96069 93.19682 29972 ft 426 kts 289°
2026-05-07 12:07 42.97956 93.12001 29977 ft 426 kts 290°
2026-05-07 12:07 42.99843 93.04322 30004 ft 426 kts 289°
2026-05-07 12:08 43.01720 92.96650 30001 ft 424 kts 289°
2026-05-07 12:08 43.03578 92.89020 30001 ft 422 kts 289°
2026-05-07 12:09 43.05425 92.81404 29986 ft 422 kts 289°
2026-05-07 12:09 43.07268 92.73794 29985 ft 421 kts 289°
2026-05-07 12:10 43.09101 92.66187 29967 ft 421 kts 289°
2026-05-07 12:10 43.10937 92.58564 29954 ft 422 kts 289°
2026-05-07 12:11 43.12761 92.50936 29965 ft 422 kts 289°
2026-05-07 12:11 43.14587 92.43300 29958 ft 422 kts 289°
2026-05-07 12:12 43.16408 92.35652 29993 ft 422 kts 289°
2026-05-07 12:12 43.18216 92.28006 29962 ft 422 kts 288°
2026-05-07 12:13 43.20029 92.20347 29974 ft 423 kts 288°
2026-05-07 12:13 43.21829 92.12670 29960 ft 423 kts 288°
2026-05-07 12:14 43.23629 92.04985 29958 ft 423 kts 288°
2026-05-07 12:14 43.25424 91.97304 29972 ft 423 kts 288°
2026-05-07 12:15 43.27220 91.89616 29961 ft 423 kts 288°
2026-05-07 12:15 43.28994 91.81965 29953 ft 424 kts 288°
2026-05-07 12:16 43.30781 91.74254 29952 ft 424 kts 288°
2026-05-07 12:16 43.32570 91.66522 29950 ft 425 kts 288°
2026-05-07 12:17 43.34350 91.58773 29971 ft 425 kts 288°
2026-05-07 12:17 43.36121 91.51026 29980 ft 425 kts 288°
2026-05-07 12:18 43.37887 91.43275 29980 ft 424 kts 288°
2026-05-07 12:18 43.39651 91.35536 29987 ft 424 kts 288°
2026-05-07 12:19 43.41414 91.27778 29980 ft 424 kts 289°
2026-05-07 12:19 43.43151 91.20095 30017 ft 424 kts 288°
2026-05-07 12:20 43.44883 91.12353 30014 ft 423 kts 288°
2026-05-07 12:20 43.46614 91.04598 30025 ft 423 kts 288°
2026-05-07 12:21 43.48347 90.96863 30023 ft 423 kts 288°
2026-05-07 12:21 43.50073 90.89107 30030 ft 423 kts 288°
2026-05-07 12:22 43.51786 90.81353 30039 ft 423 kts 288°
2026-05-07 12:22 43.53490 90.73587 30040 ft 423 kts 288°
2026-05-07 12:23 43.55194 90.65816 30048 ft 424 kts 288°
2026-05-07 12:23 43.56895 90.58042 30074 ft 424 kts 288°
2026-05-07 12:24 43.58588 90.50252 30067 ft 424 kts 288°
2026-05-07 12:24 43.60278 90.42468 30085 ft 423 kts 288°
2026-05-07 12:25 43.61962 90.34683 30073 ft 424 kts 288°
2026-05-07 12:25 43.63647 90.26890 30086 ft 424 kts 288°
2026-05-07 12:26 43.65326 90.19100 30087 ft 423 kts 288°
2026-05-07 12:26 43.66151 90.15239 30086 ft 412 kts 288°
2026-05-07 12:26 43.66941 90.11509 30091 ft 396 kts 288°
2026-05-07 12:26 43.67697 90.07969 30067 ft 380 kts 290°
2026-05-07 12:27 43.68814 90.04768 30071 ft 364 kts 308°
2026-05-07 12:27 43.70542 90.02260 30075 ft 360 kts 324°
2026-05-07 12:27 43.72714 90.00572 30073 ft 359 kts 340°
2026-05-07 12:27 43.75151 89.99812 30046 ft 360 kts 356°
2026-05-07 12:28 43.77649 90.00051 30038 ft 363 kts 12°
2026-05-07 12:28 43.80012 90.01294 30042 ft 367 kts 29°
2026-05-07 12:28 43.82028 90.03476 30042 ft 371 kts 46°
2026-05-07 12:28 43.83489 90.06438 30019 ft 377 kts 64°
2026-05-07 12:29 43.84243 90.09927 30003 ft 382 kts 82°
2026-05-07 12:29 43.84191 90.13607 30008 ft 385 kts 99°
2026-05-07 12:29 43.83574 90.17226 30009 ft 387 kts 103°
2026-05-07 12:30 43.81968 90.24360 30022 ft 388 kts 107°
2026-05-07 12:30 43.80238 90.31402 30026 ft 389 kts 107°
2026-05-07 12:31 43.78546 90.38516 30048 ft 389 kts 106°
2026-05-07 12:31 43.76746 90.45562 30022 ft 390 kts 120°
2026-05-07 12:31 43.75070 90.48488 30024 ft 390 kts 139°
2026-05-07 12:32 43.72813 90.50520 30036 ft 388 kts 159°
2026-05-07 12:32 43.70223 90.51466 30036 ft 385 kts 178°
2026-05-07 12:32 43.67572 90.51269 30039 ft 382 kts 196°
2026-05-07 12:32 43.65105 90.49971 30083 ft 381 kts 214°
2026-05-07 12:33 43.61626 90.44723 30093 ft 372 kts 250°
2026-05-07 12:33 43.60919 90.41327 30093 ft 368 kts 266°
2026-05-07 12:33 43.60963 90.37823 30087 ft 364 kts 283°
2026-05-07 12:34 43.62404 90.31131 30092 ft 364 kts 289°
2026-05-07 12:34 43.63936 90.24466 30097 ft 364 kts 289°
2026-05-07 12:35 43.65462 90.17800 30097 ft 363 kts 289°
2026-05-07 12:35 43.66983 90.11146 30097 ft 363 kts 289°
2026-05-07 12:36 43.68436 90.05729 30054 ft 360 kts 304°
2026-05-07 12:36 43.70039 90.03119 30053 ft 356 kts 322°
2026-05-07 12:36 43.72159 90.01387 30045 ft 355 kts 340°
2026-05-07 12:37 43.75376 90.00699 30014 ft 356 kts
2026-05-07 12:37 43.77794 90.01486 30017 ft 359 kts 22°
2026-05-07 12:37 43.79915 90.03320 30014 ft 364 kts 41°
2026-05-07 12:37 43.81044 90.05045 30046 ft 370 kts 53°
2026-05-07 12:38 43.82178 90.08264 30044 ft 377 kts 73°
2026-05-07 12:38 43.82444 90.11884 30043 ft 383 kts 95°
2026-05-07 12:38 43.81150 90.19097 30049 ft 388 kts 105°
2026-05-07 12:39 43.79475 90.26199 30051 ft 389 kts 107°
2026-05-07 12:39 43.77775 90.33298 30049 ft 388 kts 106°
2026-05-07 12:40 43.76122 90.40419 30052 ft 388 kts 107°
2026-05-07 12:40 43.74974 90.43790 30061 ft 389 kts 126°
2026-05-07 12:40 43.73055 90.46406 30051 ft 388 kts 148°
2026-05-07 12:41 43.70602 90.47906 30042 ft 385 kts 170°
2026-05-07 12:41 43.67941 90.48121 30071 ft 384 kts 191°
2026-05-07 12:41 43.65401 90.47071 30079 ft 381 kts 211°
2026-05-07 12:41 43.63303 90.44914 30095 ft 376 kts 231°
2026-05-07 12:42 43.61876 90.41942 30093 ft 370 kts 251°
2026-05-07 12:42 43.61260 90.38533 30087 ft 366 kts 270°
2026-05-07 12:42 43.61498 90.35075 30094 ft 362 kts 288°
2026-05-07 12:42 43.62248 90.31758 30091 ft 363 kts 289°
2026-05-07 12:43 43.63782 90.25114 30096 ft 363 kts 289°
2026-05-07 12:43 43.65307 90.18469 30096 ft 363 kts 289°
2026-05-07 12:44 43.66815 90.11864 30094 ft 363 kts 289°
2026-05-07 12:44 43.68598 90.05386 30062 ft 359 kts 306°
2026-05-07 12:45 43.70271 90.02876 30052 ft 355 kts 324°
2026-05-07 12:45 43.72432 90.01262 30044 ft 354 kts 342°
2026-05-07 12:45 43.74854 90.00705 30039 ft 355 kts
2026-05-07 12:45 43.77287 90.01256 30009 ft 357 kts 19°
2026-05-07 12:46 43.79482 90.02878 30019 ft 361 kts 37°
2026-05-07 12:46 43.81198 90.05443 30046 ft 370 kts 56°
2026-05-07 12:46 43.82223 90.08731 30043 ft 377 kts 76°
2026-05-07 12:46 43.82372 90.12357 30044 ft 382 kts 97°
2026-05-07 12:47 43.81017 90.19535 30052 ft 387 kts 106°
2026-05-07 12:47 43.79323 90.26626 30052 ft 388 kts 107°
2026-05-07 12:48 43.77623 90.33699 30051 ft 387 kts 106°
2026-05-07 12:48 43.75967 90.40797 30055 ft 388 kts 108°
2026-05-07 12:49 43.74734 90.44095 30059 ft 389 kts 129°
2026-05-07 12:49 43.72739 90.46588 30042 ft 387 kts 151°
2026-05-07 12:49 43.70255 90.47929 30041 ft 384 kts 172°
2026-05-07 12:49 43.67592 90.47980 30069 ft 384 kts 193°
2026-05-07 12:50 43.65098 90.46775 30083 ft 380 kts 214°
2026-05-07 12:50 43.63080 90.44482 30094 ft 374 kts 234°
2026-05-07 12:50 43.61763 90.41429 30093 ft 369 kts 253°
2026-05-07 12:50 43.61262 90.37996 30085 ft 364 kts 272°
2026-05-07 12:51 43.61603 90.34566 30096 ft 361 kts 289°
2026-05-07 12:51 43.62356 90.31259 30091 ft 362 kts 289°
2026-05-07 12:51 43.63887 90.24635 30097 ft 362 kts 289°
2026-05-07 12:52 43.65413 90.18008 30094 ft 362 kts 289°
2026-05-07 12:52 43.66926 90.11383 30092 ft 362 kts 289°
2026-05-07 12:53 43.68798 90.04988 30053 ft 357 kts 309°
2026-05-07 12:53 43.70530 90.02628 30054 ft 354 kts 327°
2026-05-07 12:53 43.72764 90.01157 30044 ft 353 kts 345°
2026-05-07 12:54 43.75165 90.00757 30020 ft 354 kts
2026-05-07 12:54 43.77575 90.01452 30010 ft 356 kts 21°
2026-05-07 12:54 43.79702 90.03216 30018 ft 362 kts 40°
2026-05-07 12:54 43.81326 90.05913 30045 ft 370 kts 59°
2026-05-07 12:55 43.82216 90.09270 30045 ft 377 kts 79°
2026-05-07 12:55 43.82218 90.12914 30044 ft 382 kts 100°
2026-05-07 12:55 43.80811 90.20066 30053 ft 386 kts 106°
2026-05-07 12:56 43.79112 90.27134 30054 ft 387 kts 107°
2026-05-07 12:56 43.77417 90.34197 30050 ft 386 kts 106°
2026-05-07 12:57 43.75756 90.41265 30051 ft 386 kts 110°
2026-05-07 12:57 43.74396 90.44448 30056 ft 387 kts 133°
2026-05-07 12:57 43.72301 90.46748 30045 ft 385 kts 155°
2026-05-07 12:58 43.69764 90.47864 30069 ft 385 kts 176°
2026-05-07 12:58 43.67102 90.47690 30069 ft 383 kts 197°
2026-05-07 12:58 43.64677 90.46264 30084 ft 378 kts 218°
2026-05-07 12:58 43.62772 90.43806 30090 ft 373 kts 238°
2026-05-07 12:59 43.61607 90.40663 30093 ft 367 kts 257°
2026-05-07 12:59 43.61276 90.37201 30087 ft 363 kts 276°
2026-05-07 12:59 43.61767 90.33820 30099 ft 360 kts 289°
2026-05-07 12:59 43.62528 90.30517 30093 ft 361 kts 289°
2026-05-07 13:00 43.64061 90.23911 30080 ft 362 kts 290°
2026-05-07 13:00 43.65582 90.17287 30097 ft 362 kts 289°
2026-05-07 13:01 43.67084 90.10695 30096 ft 361 kts 289°
2026-05-07 13:01 43.69108 90.04444 30057 ft 355 kts 313°
2026-05-07 13:02 43.70968 90.02238 30049 ft 353 kts 331°
2026-05-07 13:02 43.73235 90.00993 30040 ft 352 kts 349°
2026-05-07 13:02 43.75678 90.00829 30021 ft 353 kts
2026-05-07 13:02 43.78040 90.01768 30007 ft 356 kts 25°
2026-05-07 13:03 43.80077 90.03754 30049 ft 364 kts 44°
2026-05-07 13:03 43.81548 90.06630 30047 ft 371 kts 64°
2026-05-07 13:03 43.82243 90.10080 30047 ft 377 kts 84°
2026-05-07 13:03 43.82043 90.13712 30051 ft 382 kts 102°
2026-05-07 13:04 43.80567 90.20834 30056 ft 385 kts 106°
2026-05-07 13:04 43.78883 90.27832 30055 ft 386 kts 107°
2026-05-07 13:05 43.77195 90.34876 30055 ft 385 kts 106°
2026-05-07 13:05 43.75502 90.41911 30041 ft 386 kts 115°
2026-05-07 13:06 43.73970 90.44952 30059 ft 386 kts 137°
2026-05-07 13:06 43.71765 90.47018 30042 ft 384 kts 159°
2026-05-07 13:06 43.69177 90.47850 30072 ft 384 kts 181°
2026-05-07 13:06 43.66544 90.47390 30085 ft 382 kts 201°
2026-05-07 13:07 43.64210 90.45726 30097 ft 377 kts 222°
2026-05-07 13:07 43.62456 90.43097 30095 ft 371 kts 242°
2026-05-07 13:07 43.61475 90.39852 30097 ft 366 kts 262°
2026-05-07 13:07 43.61336 90.36389 30095 ft 361 kts 281°
2026-05-07 13:08 43.62713 90.29754 30097 ft 360 kts 289°
2026-05-07 13:08 43.64240 90.23158 30097 ft 361 kts 289°
2026-05-07 13:09 43.65747 90.16555 30097 ft 360 kts 289°
2026-05-07 13:09 43.67245 90.09954 30069 ft 360 kts 289°
2026-05-07 13:10 43.69475 90.03895 30044 ft 354 kts 317°
2026-05-07 13:10 43.71439 90.01898 30050 ft 351 kts 335°
2026-05-07 13:10 43.73757 90.00894 30048 ft 351 kts 353°
2026-05-07 13:11 43.76191 90.00988 30022 ft 352 kts 11°
2026-05-07 13:11 43.78487 90.02179 30017 ft 357 kts 30°
2026-05-07 13:11 43.80412 90.04387 30049 ft 365 kts 49°
2026-05-07 13:11 43.81718 90.07420 30050 ft 372 kts 69°
2026-05-07 13:12 43.82207 90.10941 30052 ft 378 kts 89°
2026-05-07 13:12 43.81821 90.14558 30061 ft 382 kts 103°
2026-05-07 13:12 43.80751 90.17917 30051 ft 385 kts 126°
2026-05-07 13:12 43.78841 90.20510 30058 ft 387 kts 147°
2026-05-07 13:13 43.76400 90.22051 30058 ft 387 kts 168°
2026-05-07 13:13 43.73738 90.22358 30085 ft 385 kts 189°
2026-05-07 13:13 43.71186 90.21384 30058 ft 381 kts 210°
2026-05-07 13:13 43.69075 90.19253 30061 ft 375 kts 231°
2026-05-07 13:14 43.67651 90.16296 30054 ft 368 kts 251°
2026-05-07 13:14 43.67050 90.12919 30077 ft 360 kts 270°
2026-05-07 13:14 43.67293 90.09518 30051 ft 354 kts 290°
2026-05-07 13:14 43.68141 90.06314 30083 ft 359 kts 292°
2026-05-07 13:15 43.69734 89.99619 30085 ft 379 kts 289°
2026-05-07 13:15 43.71282 89.92459 30082 ft 397 kts 289°
2026-05-07 13:16 43.72932 89.84986 30084 ft 414 kts 289°
2026-05-07 13:16 43.74665 89.77281 30083 ft 422 kts 289°
2026-05-07 13:17 43.76408 89.69572 30053 ft 423 kts 289°
2026-05-07 13:17 43.78156 89.61809 30055 ft 423 kts 289°
2026-05-07 13:18 43.79898 89.54031 30069 ft 423 kts 289°
2026-05-07 13:18 43.80764 89.50154 29893 ft 418 kts 289°
2026-05-07 13:18 43.81629 89.46343 29602 ft 411 kts 289°
2026-05-07 13:19 43.82496 89.42585 29324 ft 408 kts 289°
2026-05-07 13:19 43.83368 89.38857 29028 ft 404 kts 290°
2026-05-07 13:19 43.84230 89.35176 28560 ft 400 kts 290°
2026-05-07 13:19 43.85082 89.31527 28068 ft 396 kts 289°
2026-05-07 13:20 43.85919 89.27912 27591 ft 392 kts 289°
2026-05-07 13:20 43.86466 89.25537 27271 ft 390 kts 289°
2026-05-07 13:20 43.87284 89.21971 26826 ft 386 kts 289°
2026-05-07 13:20 43.88354 89.17290 26221 ft 381 kts 289°
2026-05-07 13:21 43.88891 89.14936 25927 ft 378 kts 289°
2026-05-07 13:21 43.89680 89.11476 25494 ft 375 kts 289°
2026-05-07 13:21 43.90461 89.08044 25095 ft 371 kts 288°
2026-05-07 13:21 43.91235 89.04652 24646 ft 367 kts 288°
2026-05-07 13:22 43.91992 89.01333 24236 ft 364 kts 288°
2026-05-07 13:22 43.92754 88.97998 23817 ft 361 kts 288°
2026-05-07 13:22 43.93507 88.94678 23366 ft 359 kts 288°
2026-05-07 13:22 43.94249 88.91394 22953 ft 355 kts 288°
2026-05-07 13:23 43.94980 88.88149 22527 ft 350 kts 288°
2026-05-07 13:23 43.95704 88.84934 22121 ft 347 kts 288°
2026-05-07 13:23 43.96418 88.81756 21712 ft 343 kts 288°
2026-05-07 13:23 43.97140 88.78615 21306 ft 340 kts 289°
2026-05-07 13:24 43.97896 88.75512 20914 ft 338 kts 289°
2026-05-07 13:24 43.98665 88.72443 20466 ft 336 kts 290°
2026-05-07 13:24 43.99434 88.69392 20057 ft 334 kts 290°
2026-05-07 13:24 44.00193 88.66362 19649 ft 332 kts 289°
2026-05-07 13:25 44.00945 88.63342 19247 ft 330 kts 289°
2026-05-07 13:25 44.01688 88.60338 18867 ft 328 kts 289°
2026-05-07 13:25 44.02424 88.57341 18468 ft 327 kts 289°
2026-05-07 13:25 44.03154 88.54359 18030 ft 325 kts 289°
2026-05-07 13:26 44.03870 88.51426 17634 ft 323 kts 289°
2026-05-07 13:26 44.04585 88.48488 17245 ft 320 kts 289°
2026-05-07 13:26 44.05294 88.45574 16876 ft 317 kts 288°
2026-05-07 13:26 44.05997 88.42680 16462 ft 315 kts 288°
2026-05-07 13:27 44.06695 88.39807 16083 ft 312 kts 288°
2026-05-07 13:27 44.07390 88.36958 15714 ft 310 kts 288°
2026-05-07 13:27 44.08078 88.34132 15346 ft 308 kts 288°
2026-05-07 13:27 44.08758 88.31321 14977 ft 306 kts 288°
2026-05-07 13:28 44.09433 88.28516 14609 ft 305 kts 288°
2026-05-07 13:28 44.10101 88.25731 14244 ft 303 kts 288°
2026-05-07 13:28 44.10771 88.22949 13873 ft 302 kts 288°
2026-05-07 13:28 44.11439 88.20179 13476 ft 301 kts 288°
2026-05-07 13:29 44.12114 88.17427 13095 ft 299 kts 289°
2026-05-07 13:29 44.12830 88.14715 12690 ft 298 kts 290°
2026-05-07 13:29 44.13570 88.12024 12272 ft 297 kts 290°
2026-05-07 13:29 44.14315 88.09350 11876 ft 296 kts 290°
2026-05-07 13:30 44.15057 88.06673 11476 ft 295 kts 290°
2026-05-07 13:30 44.15772 88.03997 11080 ft 294 kts 285°
2026-05-07 13:30 44.15967 88.01225 10675 ft 293 kts 263°
2026-05-07 13:30 44.15340 87.98552 10281 ft 293 kts 239°
2026-05-07 13:31 44.13995 87.96480 10123 ft 290 kts 216°
2026-05-07 13:31 44.12210 87.95179 10044 ft 291 kts 205°
2026-05-07 13:31 44.10348 87.94027 9726 ft 295 kts 205°
2026-05-07 13:31 44.08445 87.92856 9205 ft 298 kts 205°
2026-05-07 13:32 44.06558 87.91697 8550 ft 299 kts 205°
2026-05-07 13:32 44.04659 87.90529 8076 ft 293 kts 205°
2026-05-07 13:32 44.02868 87.89309 7724 ft 282 kts 216°
2026-05-07 13:32 44.01433 87.87567 7441 ft 268 kts 232°
2026-05-07 13:33 44.00448 87.85443 7129 ft 258 kts 248°
2026-05-07 13:33 43.99879 87.83098 6821 ft 256 kts 256°
2026-05-07 13:33 43.99391 87.80726 6506 ft 255 kts 255°
2026-05-07 13:33 43.98903 87.78365 6185 ft 254 kts 255°
2026-05-07 13:34 43.98412 87.76005 5862 ft 254 kts 255°
2026-05-07 13:34 43.97434 87.71310 5230 ft 251 kts 254°
2026-05-07 13:34 43.96953 87.69004 4895 ft 247 kts 255°
2026-05-07 13:35 43.96480 87.66741 4584 ft 242 kts 255°
2026-05-07 13:35 43.96021 87.64548 4287 ft 229 kts 255°
2026-05-07 13:35 43.95592 87.62498 4008 ft 213 kts 255°
2026-05-07 13:35 43.95187 87.60564 3739 ft 205 kts 255°
2026-05-07 13:36 43.94803 87.58734 3505 ft 191 kts 255°
2026-05-07 13:36 43.94443 87.57020 3249 ft 179 kts 256°
2026-05-07 13:36 43.94103 87.55398 3032 ft 173 kts 255°
2026-05-07 13:36 43.93767 87.53801 2795 ft 170 kts 256°
2026-05-07 13:37 43.93439 87.52239 2574 ft 167 kts 255°
2026-05-07 13:37 43.93122 87.50706 2378 ft 164 kts 255°
2026-05-07 13:37 43.92801 87.49195 2150 ft 163 kts 255°
2026-05-07 13:37 43.92505 87.47789 2135 ft 134 kts 254°
2026-05-07 13:38 43.92295 87.46808 2132 ft 81 kts 254°
2026-05-07 13:38 43.92188 87.46291 2138 ft 29 kts 250°
2026-05-07 13:38 43.92130 87.46065 2137 ft 24 kts 251°
2026-05-07 13:38 43.92111 87.46021 2137 ft 5 kts 218°
2026-05-07 13:39 43.92036 87.46055 2135 ft 20 kts 147°
2026-05-07 13:39 43.91966 87.46111 2136 ft 6 kts 84°
2026-05-07 13:39 43.91988 87.46181 2136 ft 13 kts 70°
2026-05-07 13:39 43.92018 87.46314 2136 ft 14 kts 72°
2026-05-07 13:40 43.92017 87.46421 2136 ft 10 kts 144°
2026-05-07 13:40 43.91963 87.46457 2134 ft 8 kts 164°
2026-05-07 13:40 43.91915 87.46476 2136 ft 6 kts 164°
2026-05-07 13:40 43.91877 87.46491 2134 ft 5 kts 164°
2026-05-07 13:41 43.91850 87.46503 2136 ft 3 kts 163°
2026-05-07 13:41 43.91832 87.46510 2135 ft 2 kts 163°
2026-05-07 13:41 43.91785 87.46561 2136 ft 17 kts 113°
2026-05-07 13:41 43.91783 87.46718 2136 ft 16 kts 99°
2026-05-07 13:42 43.91780 87.46828 2136 ft 5 kts 73°
2026-05-07 13:42 43.91782 87.46837 2136 ft 0 kts 73°